TimeMDT,TemperatureF,Dew PointF,Humidity,Sea Level PressureIn,VisibilityMPH,Wind Direction,Wind SpeedMPH,Gust SpeedMPH,PrecipitationIn,Events,Conditions,WindDirDegrees,DateUTC
12:53 AM,57.0,32.0,39,29.84,10.0,WNW,11.5,-,N/A,,Clear,300,2013-05-25 06:53:00
1:53 AM,55.0,33.1,43,29.83,10.0,WNW,9.2,-,N/A,,Clear,300,2013-05-25 07:53:00
2:53 AM,54.0,33.1,45,29.83,10.0,WNW,8.1,-,N/A,,Clear,290,2013-05-25 08:53:00
3:53 AM,52.0,34.0,50,29.84,10.0,West,8.1,-,N/A,,Clear,270,2013-05-25 09:53:00
4:53 AM,51.1,34.0,52,29.86,10.0,West,9.2,-,N/A,,Clear,280,2013-05-25 10:53:00
5:53 AM,50.0,34.0,54,29.88,10.0,WNW,11.5,-,N/A,,Clear,290,2013-05-25 11:53:00
6:53 AM,50.0,34.0,54,29.89,10.0,WNW,12.7,-,N/A,,Clear,290,2013-05-25 12:53:00
7:53 AM,51.1,34.0,52,29.91,10.0,WNW,9.2,-,N/A,,Mostly Cloudy,290,2013-05-25 13:53:00
8:53 AM,55.0,32.0,42,29.89,10.0,NW,9.2,-,N/A,,Clear,320,2013-05-25 14:53:00
9:53 AM,63.0,30.0,29,29.88,10.0,NW,12.7,-,N/A,,Clear,320,2013-05-25 15:53:00
10:53 AM,64.0,30.9,29,29.88,10.0,WNW,17.3,-,N/A,,Clear,300,2013-05-25 16:53:00
11:53 AM,64.9,32.0,29,29.89,10.0,NW,12.7,-,N/A,,Clear,320,2013-05-25 17:53:00
12:53 PM,66.9,30.9,26,29.90,10.0,West,9.2,17.3,N/A,,Partly Cloudy,280,2013-05-25 18:53:00
1:53 PM,69.1,28.9,22,29.89,10.0,WNW,9.2,-,N/A,,Clear,290,2013-05-25 19:53:00
2:53 PM,71.1,27.0,19,29.88,10.0,NNW,12.7,18.4,N/A,,Clear,340,2013-05-25 20:53:00
3:53 PM,72.0,28.0,20,29.88,10.0,NNW,11.5,18.4,N/A,,Clear,330,2013-05-25 21:53:00
4:53 PM,73.0,28.0,19,29.87,10.0,NNW,10.4,18.4,N/A,,Clear,340,2013-05-25 22:53:00
5:53 PM,73.0,28.0,19,29.85,10.0,NW,12.7,18.4,N/A,,Clear,320,2013-05-25 23:53:00
6:53 PM,73.0,26.1,17,29.84,10.0,NNW,9.2,-,N/A,,Clear,340,2013-05-26 00:53:00
7:53 PM,72.0,27.0,19,29.82,10.0,North,10.4,-,N/A,,Clear,360,2013-05-26 01:53:00
8:53 PM,68.0,25.0,20,29.82,10.0,NW,3.5,-,N/A,,Clear,310,2013-05-26 02:53:00
9:53 PM,66.0,27.0,23,29.81,10.0,NW,3.5,-,N/A,,Clear,310,2013-05-26 03:53:00
10:53 PM,64.0,28.9,27,29.81,10.0,Calm,Calm,-,N/A,,Clear,0,2013-05-26 04:53:00
11:53 PM,57.9,28.9,33,29.81,10.0,South,3.5,-,N/A,,Clear,180,2013-05-26 05:53:00